• în România
  • Lista ţărilor
  • Pe 7 zile
  • Temperatura apei
  • Hartă satelitară
  • Meteo pe hartă
  • Widget-uri
  • user-avatar
    Intrare

    Meteo pe oră la Romanovo

    Astăzi, 20 Aprilie, Vineri

    Timp Temperatura Precipitaţii Vânt Presiune Umiditate
    00:00 +5°C° 0 mm 3 m/s 747 mmHg 87%
    01:00 +5°C° 0 mm 3 m/s 748 mmHg 90%
    02:00 +4°C° 0 mm 3 m/s 748 mmHg 94%
    03:00 +5°C° 0 mm 2 m/s 748 mmHg 95%
    04:00 +4°C° 0 mm 2 m/s 748 mmHg 96%
    05:00 +4°C° 0 mm 2 m/s 749 mmHg 97%
    06:00 +5°C° 0 mm 2 m/s 749 mmHg 91%
    07:00 +6°C° 0 mm 2 m/s 749 mmHg 85%
    08:00 +7°C° 0 mm 3 m/s 750 mmHg 80%
    09:00 +8°C° 0 mm 2 m/s 750 mmHg 75%
    10:00 +9°C° 0 mm 2 m/s 750 mmHg 71%
    11:00 +9°C° 0 mm 2 m/s 750 mmHg 66%
    12:00 +10°C° 0 mm 2 m/s 750 mmHg 64%
    13:00 +12°C° 0 mm 2 m/s 750 mmHg 61%
    14:00 +12°C° 0 mm 2 m/s 749 mmHg 58%
    15:00 +12°C° 0 mm 2 m/s 749 mmHg 60%
    16:00 +12°C° 0 mm 2 m/s 749 mmHg 61%
    17:00 +12°C° 0 mm 2 m/s 748 mmHg 63%
    18:00 +10°C° 0 mm 2 m/s 748 mmHg 69%
    19:00 +9°C° 0 mm 2 m/s 747 mmHg 75%
    20:00 +8°C° 0 mm 2 m/s 747 mmHg 81%
    21:00 +8°C° 0 mm 3 m/s 746 mmHg 81%
    22:00 +8°C° 0 mm 3 m/s 745 mmHg 82%
    23:00 +7°C° 0 mm 3 m/s 744 mmHg 83%

    Mâine, 21 Aprilie, Sâmbătă

    Timp Temperatura Precipitaţii Vânt Presiune Umiditate
    00:00 +7°C° 0 mm 4 m/s 743 mmHg 81%
    01:00 +7°C° 0 mm 4 m/s 742 mmHg 80%
    02:00 +8°C° 0 mm 4 m/s 741 mmHg 79%
    03:00 +8°C° 0,1 mm 4 m/s 740 mmHg 82%
    04:00 +8°C° 0,1 mm 4 m/s 739 mmHg 84%
    05:00 +8°C° 0,1 mm 4 m/s 738 mmHg 87%
    06:00 +8°C° 0,2 mm 5 m/s 737 mmHg 86%
    07:00 +9°C° 0,2 mm 5 m/s 736 mmHg 86%
    08:00 +9°C° 0,2 mm 5 m/s 735 mmHg 85%
    09:00 +10°C° 0,2 mm 6 m/s 734 mmHg 83%
    10:00 +11°C° 0,2 mm 6 m/s 733 mmHg 81%
    11:00 +11°C° 0,2 mm 6 m/s 731 mmHg 79%
    12:00 +11°C° 0,4 mm 7 m/s 731 mmHg 78%
    13:00 +11°C° 0,4 mm 7 m/s 730 mmHg 76%
    14:00 +11°C° 0,4 mm 7 m/s 729 mmHg 75%
    15:00 +10°C° 0,2 mm 8 m/s 729 mmHg 74%
    16:00 +7°C° 0,2 mm 8 m/s 729 mmHg 72%
    17:00 +6°C° 0,2 mm 9 m/s 729 mmHg 70%
    18:00 +5°C° 0,2 mm 9 m/s 730 mmHg 71%
    19:00 +5°C° 0,2 mm 9 m/s 730 mmHg 71%
    20:00 +3°C° 0,2 mm 9 m/s 730 mmHg 72%
    21:00 +3°C° 0,1 mm 9 m/s 731 mmHg 73%
    22:00 +2°C° 0,1 mm 9 m/s 731 mmHg 75%
    23:00 +1°C° 0,1 mm 8 m/s 732 mmHg 76%

    Poimâine, 22 Aprilie, Duminică

    Timp Temperatura Precipitaţii Vânt Presiune Umiditate
    00:00 +1°C° 0,1 mm 8 m/s 733 mmHg 76%
    01:00 +2°C° 0,1 mm 7 m/s 733 mmHg 77%
    02:00 +1°C° 0,1 mm 6 m/s 734 mmHg 77%
    03:00 +1°C° 0 mm 6 m/s 735 mmHg 77%
    04:00 +1°C° 0 mm 6 m/s 735 mmHg 77%
    05:00 -1°C° 0 mm 6 m/s 736 mmHg 77%
    06:00 +1°C° 0 mm 6 m/s 736 mmHg 74%
    07:00 +1°C° 0 mm 6 m/s 737 mmHg 72%
    08:00 +1°C° 0 mm 6 m/s 737 mmHg 69%
    09:00 +1°C° 0 mm 5 m/s 738 mmHg 67%
    10:00 +2°C° 0 mm 5 m/s 738 mmHg 64%
    11:00 +2°C° 0 mm 5 m/s 738 mmHg 61%
    12:00 +3°C° 0 mm 5 m/s 739 mmHg 59%
    13:00 +3°C° 0 mm 5 m/s 739 mmHg 57%
    14:00 +5°C° 0 mm 5 m/s 739 mmHg 54%
    15:00 +3°C° 0 mm 5 m/s 740 mmHg 54%
    16:00 +4°C° 0 mm 4 m/s 740 mmHg 54%
    17:00 +4°C° 0 mm 4 m/s 740 mmHg 55%
    18:00 +3°C° 0 mm 3 m/s 741 mmHg 59%
    19:00 +1°C° 0 mm 3 m/s 741 mmHg 64%
    20:00 +1°C° 0 mm 2 m/s 742 mmHg 69%
    21:00 +1°C° 0 mm 2 m/s 742 mmHg 70%
    22:00 +1°C° 0 mm 2 m/s 742 mmHg 72%
    23:00 -1°C° 0 mm 2 m/s 743 mmHg 74%

    23 Aprilie, Luni

    Timp Temperatura Precipitaţii Vânt Presiune Umiditate
    00:00 -1°C° 0 mm 2 m/s 743 mmHg 76%
    01:00 -2°C° 0 mm 2 m/s 743 mmHg 78%
    02:00 -2°C° 0 mm 2 m/s 744 mmHg 80%
    03:00 -2°C° 0 mm 2 m/s 744 mmHg 80%
    04:00 -3°C° 0 mm 2 m/s 744 mmHg 79%
    05:00 -3°C° 0 mm 2 m/s 745 mmHg 79%
    06:00 -1°C° 0 mm 3 m/s 745 mmHg 69%
    07:00 0°C° 0 mm 3 m/s 745 mmHg 58%
    08:00 +2°C° 0 mm 3 m/s 746 mmHg 48%
    09:00 +3°C° 0 mm 3 m/s 746 mmHg 45%
    10:00 +3°C° 0 mm 3 m/s 746 mmHg 43%
    11:00 +4°C° 0 mm 3 m/s 746 mmHg 40%
    12:00 +5°C° 0 mm 3 m/s 746 mmHg 40%
    13:00 +5°C° 0 mm 3 m/s 746 mmHg 39%
    14:00 +5°C° 0 mm 3 m/s 745 mmHg 38%
    15:00 +5°C° 0 mm 3 m/s 745 mmHg 40%
    16:00 +5°C° 0 mm 3 m/s 745 mmHg 42%
    17:00 +4°C° 0 mm 3 m/s 745 mmHg 44%
    18:00 +4°C° 0 mm 2 m/s 746 mmHg 50%
    19:00 +3°C° 0 mm 2 m/s 746 mmHg 55%
    20:00 +3°C° 0 mm 1 m/s 746 mmHg 60%
    21:00 +2°C° 0 mm 1 m/s 746 mmHg 63%
    22:00 +1°C° 0 mm 1 m/s 746 mmHg 66%
    23:00 +1°C° 0 mm 1 m/s 746 mmHg 69%

    24 Aprilie, Marţi

    Timp Temperatura Precipitaţii Vânt Presiune Umiditate
    00:00 0°C° 0 mm 1 m/s 746 mmHg 70%
    01:00 0°C° 0 mm 1 m/s 746 mmHg 72%
    02:00 -1°C° 0 mm 1 m/s 746 mmHg 74%
    03:00 0°C° 0 mm 1 m/s 746 mmHg 73%
    04:00 0°C° 0 mm 1 m/s 746 mmHg 72%
    05:00 0°C° 0 mm 1 m/s 746 mmHg 72%
    06:00 +2°C° 0 mm 1 m/s 746 mmHg 64%
    07:00 +4°C° 0 mm 1 m/s 746 mmHg 56%
    08:00 +4°C° 0 mm 2 m/s 746 mmHg 48%
    09:00 +5°C° 0 mm 2 m/s 746 mmHg 44%
    10:00 +6°C° 0 mm 2 m/s 746 mmHg 41%
    11:00 +7°C° 0 mm 2 m/s 745 mmHg 37%
    12:00 +8°C° 0 mm 2 m/s 745 mmHg 37%
    13:00 +8°C° 0 mm 2 m/s 745 mmHg 36%
    14:00 +9°C° 0 mm 2 m/s 744 mmHg 35%
    15:00 +9°C° 0 mm 2 m/s 744 mmHg 37%
    16:00 +9°C° 0 mm 2 m/s 744 mmHg 39%
    17:00 +8°C° 0 mm 2 m/s 743 mmHg 40%
    18:00 +7°C° 0 mm 2 m/s 743 mmHg 48%
    19:00 +4°C° 0 mm 3 m/s 743 mmHg 55%
    20:00 +2°C° 0 mm 3 m/s 743 mmHg 62%
    21:00 +1°C° 0 mm 3 m/s 743 mmHg 63%
    22:00 +1°C° 0 mm 3 m/s 743 mmHg 64%
    23:00 +1°C° 0 mm 3 m/s 743 mmHg 65%

    25 Aprilie, Miercuri

    Timp Temperatura Precipitaţii Vânt Presiune Umiditate
    00:00 0°C° 0 mm 3 m/s 743 mmHg 67%
    01:00 0°C° 0 mm 3 m/s 743 mmHg 69%
    02:00 -1°C° 0 mm 3 m/s 743 mmHg 70%
    03:00 -1°C° 0 mm 3 m/s 742 mmHg 70%
    04:00 -1°C° 0 mm 3 m/s 742 mmHg 70%
    05:00 0°C° 0 mm 3 m/s 742 mmHg 70%
    06:00 +1°C° 0 mm 3 m/s 742 mmHg 66%
    07:00 +3°C° 0 mm 3 m/s 742 mmHg 61%
    08:00 +5°C° 0 mm 4 m/s 742 mmHg 57%
    09:00 +6°C° 0 mm 4 m/s 742 mmHg 58%
    10:00 +6°C° 0 mm 4 m/s 742 mmHg 59%
    11:00 +7°C° 0 mm 4 m/s 742 mmHg 60%
    12:00 +7°C° 0 mm 4 m/s 742 mmHg 63%
    13:00 +8°C° 0 mm 4 m/s 742 mmHg 65%
    14:00 +8°C° 0 mm 4 m/s 741 mmHg 67%
    15:00 +8°C° 0 mm 4 m/s 741 mmHg 70%
    16:00 +8°C° 0 mm 4 m/s 741 mmHg 72%
    17:00 +9°C° 0 mm 3 m/s 741 mmHg 75%
    18:00 +8°C° 0 mm 3 m/s 740 mmHg 79%
    19:00 +7°C° 0 mm 3 m/s 740 mmHg 84%
    20:00 +5°C° 0 mm 3 m/s 740 mmHg 88%
    21:00 +5°C° 0 mm 4 m/s 739 mmHg 87%
    22:00 +5°C° 0 mm 4 m/s 738 mmHg 86%
    23:00 +5°C° 0 mm 4 m/s 738 mmHg 85%
    Arată mai mult